Weather History for Sidney, NE

Change the Weather History Date:

Wednesday, March 20, 2013

  Actual Average Record
Temperature  
Mean Temperature 32 °F 40 °F  
Max Temperature 56 °F 54 °F 81 °F (1997)
Min Temperature 8 °F 26 °F -7 °F (1965)
Degree Days  
Heating Degree Days 33 25  
Month to date heating degree days 513 544  
Since 1 July heating degree days 5243 5126  
Cooling Degree Days 0 0  
Month to date cooling degree days 0 0  
Year to date cooling degree days 0 0  
Moisture  
Dew Point 16 °F    
Average Humidity 59    
Maximum Humidity 96    
Minimum Humidity 22    
Precipitation  
Precipitation 0.00 in 0.04 in 0.34 in (1974)
Month to date precipitation 0.03 0.60  
Year to date precipitation 0.61 1.12  
Sea Level Pressure  
Sea Level Pressure 30.13 in    
Wind  
Wind Speed 13 mph (SSW)    
Max Wind Speed 26 mph    
Max Gust Speed 32 mph    
Visibility 10 miles    
Events      
T = Trace of Precipitation, MM = Missing Value Source: NWS Daily Summary

Daily Weather History Graph

Daily Weather History Graph

Search for Another Location

Airport:

Trip Planner

Search our weather history database for the weather conditions in past years. The results will help you decide how hot, cold, wet, or windy it might be!

Date:

Astronomy

Mar. 20, 2013 Rise Set
Actual Time 6:54 AM MDT 7:04 PM MDT
Civil Twilight 6:27 AM MDT 7:31 PM MDT
Nautical Twilight 5:55 AM MDT 8:04 PM MDT
Astronomical Twilight 5:22 AM MDT 8:36 PM MDT
Moon 12:38 PM MDT (3/20) 2:38 AM MDT (3/20)
Length of Visible Light 13h 04m
Length of Day
12h 09m
First Quarter, 60% of the Moon is Illuminated
Mar 20
First Quarter
Mar 27
Full
Apr 2
Last Quarter
Apr 10
New
Apr 18
First Quarter

Hourly Weather History & Observations

Time (MDT) Temp. Windchill Dew Point Humidity Pressure Visibility Wind Dir Wind Speed Gust Speed Precip Events Conditions
12:53 AM 14.0 °F 2.9 °F 12.0 °F 92% 30.34 in 10.0 mi West 8.1 mph - N/A   Clear
1:53 AM 14.0 °F 5.1 °F 10.9 °F 88% 30.33 in 10.0 mi WNW 5.8 mph - N/A   Clear
2:53 AM 10.0 °F 3.6 °F 7.0 °F 87% 30.30 in 10.0 mi WSW 3.5 mph - N/A   Clear
3:53 AM 8.1 °F -2.0 °F 5.0 °F 87% 30.27 in 10.0 mi West 5.8 mph - N/A   Clear
4:53 AM 8.1 °F -0.5 °F 5.0 °F 87% 30.38 in 10.0 mi WSW 4.6 mph - N/A   Clear
5:48 AM 10.4 °F -0.4 °F 6.8 °F 85% 30.25 in 10.0 mi SSW 6.9 mph - N/A   Scattered Clouds
5:53 AM 12.9 °F 2.6 °F 9.0 °F 84% 30.37 in 10.0 mi SSW 6.9 mph - N/A   Mostly Cloudy
6:19 AM 15.8 °F 6.1 °F 12.2 °F 86% 30.24 in 10.0 mi SSW 6.9 mph - N/A   Overcast
6:53 AM 21.0 °F 10.6 °F 18.0 °F 88% 30.33 in 10.0 mi South 9.2 mph - N/A   Mostly Cloudy
7:08 AM 19.4 °F 9.5 °F 17.6 °F 93% 30.23 in 10.0 mi South 8.1 mph - N/A   Scattered Clouds
7:53 AM 21.9 °F 11.0 °F 18.0 °F 85% 30.33 in 10.0 mi South 10.4 mph - N/A   Scattered Clouds
8:07 AM 23.0 °F 12.4 °F 19.4 °F 86% 30.21 in 10.0 mi South 10.4 mph - N/A   Mostly Cloudy
8:53 AM 26.1 °F 14.0 °F 23.0 °F 88% 30.31 in 10.0 mi SSW 15.0 mph - N/A   Overcast
9:51 AM 30.2 °F 19.3 °F 23.0 °F 75% 30.18 in 10.0 mi SSW 15.0 mph - N/A   Partly Cloudy
9:53 AM 30.9 °F 20.2 °F 24.1 °F 76% 30.29 in 10.0 mi SSW 15.0 mph - N/A   Partly Cloudy
10:53 AM 37.0 °F 27.7 °F 23.0 °F 57% 30.22 in 10.0 mi South 16.1 mph 21.9 mph N/A   Clear
11:53 AM 44.1 °F 35.7 °F 19.0 °F 37% 30.16 in 10.0 mi South 20.7 mph 27.6 mph N/A   Clear
12:53 PM 46.0 °F 38.3 °F 19.9 °F 35% 30.10 in 10.0 mi South 20.7 mph 31.1 mph N/A   Clear
1:53 PM 48.0 °F - 19.9 °F 33% 30.04 in 10.0 mi South 20.7 mph 27.6 mph N/A   Clear
2:53 PM 53.1 °F - 18.0 °F 25% 29.98 in 10.0 mi South 20.7 mph 27.6 mph N/A   Clear
3:53 PM 53.1 °F - 15.1 °F 22% 29.94 in 10.0 mi South 21.9 mph 31.1 mph N/A   Clear
4:53 PM 53.1 °F - 16.0 °F 23% 29.92 in 10.0 mi SSE 17.3 mph - N/A   Overcast
5:53 PM 52.0 °F - 16.0 °F 24% 29.88 in 10.0 mi SSE 18.4 mph 27.6 mph N/A   Mostly Cloudy
6:53 PM 48.0 °F - 14.0 °F 26% 29.85 in 10.0 mi SSW 15.0 mph - N/A   Clear
7:53 PM 48.0 °F - 16.0 °F 28% 29.85 in 10.0 mi SSW 12.7 mph - N/A   Mostly Cloudy
8:53 PM 48.0 °F - 17.1 °F 29% 29.83 in 10.0 mi South 9.2 mph - N/A   Overcast
9:53 PM 44.1 °F 37.4 °F 19.0 °F 37% 29.80 in 10.0 mi South 13.8 mph - N/A   Overcast
10:53 PM 42.1 °F 35.2 °F 19.9 °F 41% 29.77 in 10.0 mi SSE 12.7 mph - N/A   Overcast